Total_Precipitation_Accumulation
0.00 0.00 0.00 0.00 0.00 0.00 0.00 0.00 0.00 0.00 0.01 0.00 0.00 0.00 0.00 0.00 0.00 0.00 0.00 0.00 0.00 0.03 0.02 0.02 0.11 0.02 0.00 0.00 0.01 0.02 0.02 0.01 0.06 0.09 0.08 0.13 0.04 0.01 0.00 0.03 0.03 0.00 0.00
0.00 0.00 0.00 0.00 0.00 0.00 0.00 0.00 0.00 0.01 0.02 0.00 0.00 0.00 0.00 0.01 0.01 0.04 0.02 0.00 0.00 0.01 0.05 0.05 0.19 0.03 0.00 0.00 0.00 0.00 0.00 0.02 0.02 0.02 0.01 0.06 0.07 0.02 0.01 0.07 0.02 0.02 0.02
0.00 0.00 0.00 0.00 0.00 0.00 0.00 0.00 0.00 0.01 0.01 0.00 0.01 0.00 0.00 0.00 0.00 0.00 0.01 0.00 0.00 0.00 0.02 0.07 0.28 0.26 0.04 0.01 0.00 0.00 0.01 0.00 0.00 0.01 0.02 0.02 0.03 0.06 0.03 0.11 0.04 0.09 0.07
0.00 0.00 0.00 0.00 0.00 0.00 0.00 0.00 0.00 0.00 0.00 0.00 0.00 0.00 0.00 0.00 0.00 0.02 0.04 0.02 0.04 0.01 0.05 0.03 0.14 0.31 0.24 0.04 0.01 0.02 0.07 0.03 0.01 0.02 0.01 0.01 0.01 0.06 0.09 0.08 0.05 0.09 0.09
0.00 0.00 0.00 0.00 0.00 0.00 0.00 0.00 0.01 0.00 0.00 0.00 0.00 0.00 0.00 0.00 0.01 0.03 0.04 0.03 0.03 0.05 0.04 0.04 0.11 0.26 0.17 0.07 0.04 0.04 0.08 0.08 0.07 0.03 0.01 0.01 0.02 0.04 0.10 0.09 0.14 0.12 0.11
0.00 0.00 0.00 0.00 0.00 0.00 0.00 0.00 0.00 0.00 0.00 0.00 0.00 0.00 0.00 0.01 0.03 0.03 0.01 0.01 0.00 0.02 0.06 0.11 0.24 0.28 0.26 0.21 0.12 0.10 0.11 0.07 0.05 0.06 0.04 0.11 0.16 0.20 0.21 0.19 0.18 0.17 0.19
0.00 0.00 0.00 0.00 0.00 0.00 0.00 0.01 0.00 0.00 0.00 0.00 0.00 0.00 0.00 0.04 0.06 0.02 0.00 0.00 0.00 0.00 0.01 0.10 0.26 0.42 0.42 0.30 0.24 0.13 0.06 0.04 0.04 0.06 0.08 0.24 0.51 0.38 0.36 0.38 0.35 0.37 0.21
0.00 0.00 0.00 0.00 0.01 0.00 0.00 0.01 0.01 0.00 0.01 0.00 0.00 0.00 0.00 0.04 0.07 0.03 0.00 0.00 0.00 0.00 0.04 0.13 0.38 0.76 0.65 0.64 0.41 0.19 0.15 0.09 0.07 0.07 0.12 0.31 1.16 0.51 0.41 0.35 0.50 0.55 0.25
0.00 0.00 0.00 0.00 0.00 0.00 0.00 0.00 0.00 0.01 0.01 0.01 0.00 0.00 0.00 0.02 0.03 0.04 0.00 0.00 0.00 0.00 0.05 0.17 0.97 1.22 0.77 0.56 0.41 0.35 0.33 0.32 0.11 0.13 0.18 0.46 1.81 0.93 0.73 0.55 0.65 0.51 0.52
0.00 0.00 0.00 0.00 0.00 0.00 0.00 0.00 0.00 0.00 0.00 0.00 0.00 0.00 0.00 0.00 0.00 0.01 0.00 0.01 0.04 0.01 0.06 0.15 0.63 0.97 0.52 0.33 0.35 0.31 0.33 0.34 0.30 0.26 0.23 0.51 1.43 1.45 0.94 0.55 0.44 0.35 0.50
0.00 0.00 0.00 0.00 0.00 0.00 0.00 0.00 0.00 0.00 0.00 0.00 0.00 0.00 0.00 0.00 0.00 0.00 0.00 0.00 0.03 0.06 0.14 0.25 0.35 0.57 0.54 0.33 0.30 0.14 0.24 0.29 0.37 0.45 0.32 0.48 0.52 0.50 0.34 0.29 0.17 0.15 0.16
0.00 0.00 0.00 0.00 0.00 0.00 0.00 0.00 0.00 0.00 0.00 0.00 0.00 0.00 0.00 0.00 0.00 0.00 0.00 0.00 0.07 0.12 0.23 0.31 0.35 0.31 0.43 0.28 0.23 0.09 0.16 0.24 0.32 0.30 0.28 0.28 0.17 0.13 0.11 0.08 0.03 0.03 0.02
0.00 0.00 0.00 0.00 0.00 0.00 0.00 0.00 0.00 0.00 0.00 0.00 0.00 0.00 0.00 0.00 0.00 0.00 0.00 0.02 0.02 0.09 0.39 0.62 0.24 0.20 0.28 0.23 0.19 0.12 0.16 0.20 0.26 0.24 0.31 0.15 0.11 0.10 0.07 0.04 0.03 0.01 0.02
0.00 0.00 0.00 0.00 0.00 0.00 0.00 0.00 0.00 0.00 0.00 0.00 0.00 0.00 0.00 0.00 0.00 0.00 0.00 0.07 0.15 0.08 0.16 0.24 0.13 0.10 0.14 0.16 0.16 0.22 0.20 0.13 0.15 0.14 0.32 0.14 0.12 0.09 0.03 0.03 0.01 0.01 0.00
0.00 0.00 0.00 0.00 0.00 0.00 0.00 0.00 0.00 0.00 0.00 0.00 0.00 0.00 0.00 0.00 0.00 0.00 0.01 0.12 0.44 0.38 0.23 0.25 0.18 0.15 0.15 0.16 0.21 0.20 0.20 0.11 0.10 0.05 0.12 0.16 0.09 0.12 0.05 0.01 0.00 0.00 0.00
0.00 0.00 0.00 0.00 0.00 0.00 0.00 0.00 0.00 0.00 0.00 0.00 0.00 0.00 0.00 0.00 0.00 0.00 0.01 0.05 0.22 0.57 0.38 0.47 0.28 0.13 0.19 0.17 0.23 0.21 0.25 0.13 0.11 0.05 0.03 0.12 0.05 0.05 0.03 0.00 0.00 0.00 0.00
0.01 0.02 0.02 0.01 0.01 0.00 0.00 0.00 0.00 0.00 0.00 0.00 0.00 0.00 0.00 0.00 0.00 0.00 0.01 0.03 0.09 0.32 0.35 0.40 0.37 0.14 0.14 0.17 0.16 0.23 0.24 0.15 0.08 0.02 0.01 0.04 0.01 0.01 0.01 0.00 0.00 0.00 0.00
0.02 0.02 0.03 0.02 0.06 0.04 0.01 0.00 0.00 0.00 0.00 0.00 0.00 0.00 0.00 0.00 0.00 0.00 0.01 0.06 0.06 0.20 0.22 0.28 0.32 0.19 0.10 0.16 0.13 0.18 0.11 0.08 0.03 0.01 0.00 0.01 0.00 0.00 0.00 0.00 0.00 0.00 0.00
0.01 0.02 0.05 0.06 0.08 0.11 0.04 0.01 0.00 0.00 0.00 0.00 0.00 0.00 0.00 0.00 0.00 0.00 0.01 0.05 0.05 0.07 0.09 0.17 0.24 0.15 0.04 0.04 0.04 0.06 0.04 0.02 0.02 0.00 0.00 0.00 0.00 0.00 0.00 0.00 0.00 0.00 0.00
0.00 0.01 0.04 0.08 0.09 0.20 0.10 0.03 0.01 0.00 0.00 0.00 0.00 0.00 0.00 0.00 0.00 0.00 0.02 0.03 0.04 0.09 0.04 0.09 0.14 0.15 0.10 0.02 0.02 0.03 0.06 0.05 0.03 0.01 0.00 0.00 0.00 0.00 0.00 0.00 0.00 0.00 0.00
0.00 0.01 0.02 0.07 0.07 0.30 0.19 0.09 0.02 0.00 0.01 0.00 0.00 0.00 0.00 0.00 0.00 0.00 0.01 0.01 0.02 0.05 0.05 0.02 0.08 0.20 0.21 0.11 0.05 0.04 0.04 0.03 0.01 0.00 0.00 0.00 0.00 0.00 0.00 0.00 0.00 0.00 0.00
0.00 0.00 0.03 0.06 0.09 0.21 0.25 0.12 0.04 0.01 0.00 0.00 0.00 0.00 0.00 0.00 0.00 0.01 0.01 0.01 0.01 0.02 0.06 0.04 0.03 0.13 0.24 0.15 0.07 0.04 0.01 0.01 0.01 0.00 0.00 0.00 0.00 0.00 0.00 0.00 0.00 0.00 0.00
0.00 0.00 0.01 0.03 0.06 0.08 0.14 0.17 0.07 0.02 0.01 0.00 0.00 0.00 0.00 0.00 0.00 0.00 0.01 0.02 0.02 0.01 0.03 0.04 0.05 0.04 0.07 0.06 0.03 0.02 0.01 0.00 0.00 0.00 0.00 0.00 0.00 0.00 0.00 0.00 0.00 0.00 0.00
0.00 0.00 0.00 0.01 0.04 0.08 0.12 0.14 0.20 0.09 0.01 0.00 0.00 0.00 0.00 0.00 0.00 0.00 0.00 0.01 0.01 0.01 0.01 0.03 0.06 0.04 0.01 0.02 0.02 0.01 0.00 0.00 0.00 0.00 0.00 0.00 0.00 0.00 0.00 0.00 0.00 0.00 0.00
0.00 0.00 0.00 0.01 0.03 0.05 0.12 0.16 0.13 0.19 0.05 0.00 0.00 0.00 0.00 0.00 0.00 0.00 0.00 0.00 0.01 0.01 0.01 0.02 0.03 0.02 0.00 0.00 0.00 0.00 0.00 0.00 0.00 0.00 0.00 0.00 0.00 0.00 0.00 0.00 0.00 0.00 0.00
0.00 0.00 0.00 0.00 0.01 0.04 0.12 0.22 0.15 0.13 0.17 0.02 0.00 0.00 0.00 0.00 0.00 0.00 0.00 0.00 0.00 0.01 0.02 0.03 0.02 0.01 0.00 0.00 0.00 0.00 0.00 0.00 0.00 0.00 0.00 0.00 0.00 0.00 0.00 0.00 0.00 0.00 0.00